Bloomington, IN

3:12 PM EDT on July 28, 2016 (GMT -0400)
Monroe County

Weather History for KBMG - March, 2013

Change the Weather History Date:

Sunday, March 17, 2013

  Actual Average Record
Temperature  
Mean Temperature 36 °F 43 °F  
Max Temperature 39 °F 55 °F 78 °F (2012)
Min Temperature 33 °F 32 °F 22 °F (2014)
Degree Days  
Heating Degree Days 29 22  
Month to date heating degree days 480 422  
Since 1 July heating degree days 4436 4490  
Cooling Degree Days 0 0  
Month to date cooling degree days 0 0  
Year to date cooling degree days 0 0  
Moisture  
Dew Point 28 °F    
Average Humidity 77    
Maximum Humidity 89    
Minimum Humidity 64    
Precipitation  
Precipitation 0.65 in 0.14 in 0.65 in (2013)
Month to date precipitation 1.27 1.74  
Year to date precipitation 9.28 7.81  
Sea Level Pressure  
Sea Level Pressure 30.03 in    
Wind  
Wind Speed 10 mph (ENE)    
Max Wind Speed 18 mph    
Max Gust Speed 23 mph    
Visibility 8 miles    
Events Rain , Snow    
T = Trace of Precipitation, MM = Missing Value Source: NWS Daily Summary

Daily Weather History Graph

Daily Weather History Graph

Search for Another Location

Airport or City:

Trip Planner

Search our weather history database for the weather conditions in past years. The results will help you decide how hot, cold, wet, or windy it might be!

Date:

Astronomy

Mar. 17, 2013 Rise Set
Actual Time 7:54 AM EDT 7:55 PM EDT
Civil Twilight 7:27 AM EDT 8:22 PM EDT
Nautical Twilight 6:56 AM EDT 8:53 PM EDT
Astronomical Twilight 6:25 AM EDT 9:25 PM EDT
Moon 11:08 AM EDT (3/17) 1:00 AM EDT (3/17)
Length of Visible Light 12h 54m
Length of Day
12h 01m
Waxing Crescent, 31% of the Moon is Illuminated
Mar 17
Waxing Crescent
Mar 19
First Quarter
Mar 27
Full
Apr 3
Last Quarter
Apr 10
New

Hourly Weather History & Observations

Time (EDT) Temp. Windchill Dew Point Humidity Pressure Visibility Wind Dir Wind Speed Gust Speed Precip Events Conditions
12:53 AM 36.0 °F 29.0 °F 28.9 °F 76% 30.03 in 10.0 mi North 9.2 mph - N/A   Overcast
1:16 AM 35.6 °F 27.5 °F 28.4 °F 75% 30.01 in 10.0 mi NNE 11.5 mph - N/A   Mostly Cloudy
1:53 AM 35.1 °F 27.4 °F 28.9 °F 78% 30.02 in 10.0 mi North 10.4 mph - N/A   Mostly Cloudy
2:03 AM 35.6 °F 28.6 °F 28.4 °F 75% 30.00 in 10.0 mi NNE 9.2 mph - N/A   Mostly Cloudy
2:53 AM 34.0 °F 26.6 °F 28.0 °F 79% 30.03 in 10.0 mi North 9.2 mph - N/A   Overcast
3:18 AM 33.8 °F 25.3 °F 28.4 °F 81% 30.02 in 10.0 mi NNE 11.5 mph - N/A   Overcast
3:28 AM 33.8 °F 26.4 °F 28.4 °F 81% 30.02 in 10.0 mi North 9.2 mph - N/A   Overcast
3:51 AM 33.8 °F 25.3 °F 28.4 °F 81% 30.02 in 10.0 mi NNE 11.5 mph - N/A   Overcast
3:53 AM 34.0 °F 26.6 °F 28.0 °F 79% 30.03 in 10.0 mi NNE 9.2 mph - N/A   Overcast
4:53 AM 34.0 °F 27.2 °F 27.0 °F 75% 30.06 in 10.0 mi North 8.1 mph - N/A   Overcast
5:36 AM 33.8 °F 27.0 °F 26.6 °F 75% 30.05 in 10.0 mi NE 8.1 mph - N/A   Overcast
5:53 AM 34.0 °F 26.6 °F 27.0 °F 75% 30.07 in 10.0 mi NNE 9.2 mph - N/A   Overcast
6:53 AM 33.1 °F 26.1 °F 27.0 °F 78% 30.09 in 10.0 mi NE 8.1 mph - N/A   Overcast
7:53 AM 33.1 °F 26.1 °F 27.0 °F 78% 30.13 in 10.0 mi NNE 8.1 mph - N/A   Overcast
8:53 AM 33.1 °F 26.1 °F 27.0 °F 78% 30.10 in 10.0 mi ENE 8.1 mph - N/A   Overcast
9:36 AM 33.8 °F 25.8 °F 26.6 °F 75% 30.08 in 10.0 mi ENE 10.4 mph - N/A   Overcast
9:53 AM 34.0 °F 26.0 °F 27.0 °F 75% 30.11 in 10.0 mi ENE 10.4 mph - N/A   Overcast
10:53 AM 35.1 °F 27.9 °F 27.0 °F 72% 30.11 in 10.0 mi ENE 9.2 mph - N/A   Overcast
11:53 AM 35.1 °F 26.4 °F 26.1 °F 70% 30.12 in 10.0 mi ENE 12.7 mph - N/A   Overcast
12:53 PM 35.1 °F 27.4 °F 26.1 °F 70% 30.11 in 10.0 mi East 10.4 mph 17.3 mph N/A   Overcast
1:53 PM 36.0 °F 28.0 °F 27.0 °F 70% 30.11 in 10.0 mi East 11.5 mph - N/A   Overcast
2:53 PM 37.9 °F 30.9 °F 27.0 °F 65% 30.08 in 10.0 mi ENE 10.4 mph - N/A   Overcast
3:53 PM 37.9 °F 30.5 °F 28.0 °F 68% 30.05 in 10.0 mi ENE 11.5 mph - N/A   Overcast
4:53 PM 37.9 °F 30.9 °F 28.0 °F 68% 30.02 in 10.0 mi East 10.4 mph - N/A   Overcast
5:53 PM 37.9 °F 30.0 °F 28.0 °F 68% 30.00 in 10.0 mi East 12.7 mph - N/A   Overcast
6:53 PM 37.0 °F 28.9 °F 28.0 °F 70% 30.02 in 10.0 mi East 12.7 mph - N/A   Overcast
7:46 PM 35.6 °F 27.5 °F 28.4 °F 75% 29.98 in 2.5 mi East 11.5 mph - 0.00 in Snow Light Snow
7:53 PM 35.1 °F 28.6 °F 30.0 °F 82% 30.00 in 3.0 mi East 8.1 mph - 0.01 in Snow Light Snow
8:14 PM 35.6 °F 29.2 °F 30.2 °F 81% 29.98 in 7.0 mi East 8.1 mph - 0.00 in Rain Light Rain
8:43 PM 35.6 °F 28.0 °F 30.2 °F 81% 29.98 in 7.0 mi East 10.4 mph - 0.01 in Rain Light Rain
8:53 PM 35.1 °F 26.4 °F 30.0 °F 82% 29.98 in 6.0 mi East 12.7 mph - 0.02 in Rain Light Rain
9:02 PM 35.6 °F 26.6 °F 30.2 °F 81% 29.95 in 6.0 mi East 13.8 mph - 0.00 in Rain Light Rain
9:27 PM 35.6 °F 26.6 °F 30.2 °F 81% 29.95 in 6.0 mi East 13.8 mph - 0.01 in Rain Light Rain
9:53 PM 35.1 °F 26.9 °F 30.0 °F 82% 29.96 in 6.0 mi East 11.5 mph - 0.01 in Rain Light Rain
10:53 PM 34.0 °F 27.2 °F 30.9 °F 89% 29.97 in 3.0 mi East 8.1 mph - 0.16 in Rain Rain
11:39 PM 33.8 °F 23.5 °F 30.2 °F 87% 29.91 in 4.0 mi East 16.1 mph - 0.06 in Rain Light Rain
11:53 PM 34.0 °F 23.8 °F 30.9 °F 89% 29.91 in 3.0 mi East 16.1 mph 21.9 mph 0.10 in Rain Rain